Wind_Speed
10 10 10 9 9 8 8 9 9 9 8 9 9 8 9 9 9 9 8 8 8 8 8 9 10 10 9 11 11 12 14 15 15 10 7 10 8 5 6 3 8 11 7 4 5 5 4 3 2 1 3 2 1 0 0 1 1 1 1 1 1 2 2 4 4 3 1 5 7 6 4 5 4 3 2 3 8 10 8 4 4 5 5 4 9 18 21 18
10 10 9 9 9 9 9 9 9 9 9 9 9 9 9 9 9 8 8 8 8 8 8 9 9 9 9 10 11 13 15 15 14 11 8 7 7 7 6 4 8 10 6 4 5 5 4 1 0 2 2 1 1 1 0 0 0 1 1 1 3 3 3 3 3 2 3 7 9 9 5 4 3 4 2 4 9 10 10 6 4 7 7 8 14 19 19 18
11 10 10 9 9 9 9 9 8 8 8 8 8 9 9 8 8 8 8 8 8 8 8 9 9 9 10 10 11 13 13 11 7 5 3 4 4 8 9 8 10 9 6 6 7 6 4 2 2 2 1 1 1 1 1 1 1 1 1 2 3 3 4 3 4 5 6 7 8 9 5 2 3 2 2 6 9 8 10 8 7 9 9 11 16 18 18 18
11 10 9 9 9 8 9 8 8 8 8 8 8 9 8 8 8 8 8 8 8 8 8 8 8 9 9 10 11 11 9 4 1 1 4 6 4 8 13 12 12 8 6 7 8 6 4 3 2 2 1 1 1 1 1 0 1 1 2 3 2 2 4 5 6 7 6 4 4 5 5 1 2 1 4 10 9 6 8 7 4 9 16 16 16 17 17 17
11 10 9 9 9 9 9 9 9 9 8 8 8 9 8 8 8 8 8 8 8 8 8 7 8 8 8 9 9 8 4 0 1 4 7 6 1 11 15 14 11 7 7 9 7 5 3 2 2 3 1 1 1 1 1 0 2 2 3 3 3 3 5 6 3 5 4 3 3 4 5 1 0 2 7 11 9 3 3 4 2 7 18 19 18 18 16 15
11 10 10 10 10 10 9 9 9 9 9 9 9 9 8 8 8 8 8 8 8 7 7 7 7 8 8 9 7 4 2 0 1 5 7 4 7 15 17 14 10 7 9 9 6 3 2 2 1 2 1 1 1 1 0 1 2 4 2 2 5 4 5 6 3 4 2 2 4 3 4 1 1 3 7 7 3 2 2 3 3 8 14 17 18 17 16 15
11 10 10 10 9 10 10 9 9 9 9 9 9 9 8 8 7 7 7 7 7 6 7 6 7 7 8 8 3 1 1 1 4 6 6 4 13 16 16 13 10 9 9 8 5 2 2 2 1 2 1 1 1 1 0 0 1 3 2 3 5 4 7 7 5 4 1 5 6 1 2 3 4 2 4 5 1 3 3 2 9 12 13 14 14 15 15 15
11 10 10 10 10 10 9 9 9 8 8 8 8 8 8 7 7 7 7 7 6 5 6 5 6 7 7 5 1 0 0 3 7 6 2 8 16 17 16 13 10 10 9 7 5 3 2 2 2 2 0 2 2 1 1 1 1 3 4 3 3 3 7 8 6 5 4 6 4 2 3 3 3 1 4 5 0 1 2 7 12 13 13 13 13 14 14 14
11 11 10 10 9 9 9 9 9 8 8 8 8 8 7 7 7 6 6 6 5 4 4 5 6 6 6 3 1 0 1 4 8 2 4 8 16 17 15 12 10 9 8 7 5 4 3 1 2 2 1 2 2 2 0 2 2 4 5 3 4 6 7 5 4 4 4 4 2 3 0 2 1 1 4 2 1 3 6 9 13 14 13 13 12 13 13 13
11 11 10 9 8 8 8 8 8 8 8 7 8 8 7 6 6 6 6 5 4 4 3 4 5 5 4 1 1 1 1 4 7 5 6 6 14 17 13 10 10 10 8 7 6 5 3 2 2 2 2 3 2 1 1 2 1 4 5 4 8 9 6 4 4 3 2 2 2 1 3 3 1 1 2 2 1 6 9 9 11 13 12 11 11 11 10 11
11 10 9 8 8 8 7 8 8 7 7 7 7 7 7 6 5 5 5 4 4 3 3 3 4 4 3 1 0 1 2 3 7 7 6 5 11 15 12 8 10 11 10 6 5 7 4 4 5 1 1 2 1 1 2 2 1 2 4 6 8 5 2 3 2 2 1 1 1 1 3 1 1 0 0 1 3 5 9 10 9 11 10 10 10 9 8 8
10 9 8 8 8 7 7 7 7 7 7 7 7 6 6 6 5 4 4 3 3 3 2 2 3 4 2 1 1 2 1 3 4 6 6 5 7 10 9 7 8 10 10 5 5 11 7 5 5 1 0 1 1 1 2 2 1 2 1 5 7 2 1 3 2 1 1 2 2 2 3 1 2 0 2 0 4 5 8 10 9 9 8 9 9 8 7 7
9 9 8 8 7 7 7 6 6 7 7 7 7 7 6 5 5 4 3 3 2 2 2 2 3 3 1 0 1 1 1 3 3 4 6 6 5 6 6 5 5 7 8 4 1 7 10 6 2 1 1 2 2 1 1 0 1 2 1 2 5 2 2 7 4 2 2 2 2 2 1 1 3 2 3 0 6 8 9 9 9 8 7 7 7 6 7 6
9 9 8 7 7 7 6 6 6 6 6 6 7 7 6 5 4 3 2 2 2 2 1 2 4 3 1 2 1 1 2 3 3 1 5 7 6 6 6 6 6 7 8 5 1 1 8 8 2 1 1 2 2 3 2 1 1 2 0 0 2 1 2 6 4 3 4 2 2 2 1 1 2 5 3 0 4 7 9 9 9 8 7 7 7 7 8 7
9 8 8 7 7 6 6 5 5 6 7 7 7 7 6 5 4 3 2 2 1 1 1 2 3 2 1 1 1 2 3 2 2 2 3 8 8 5 6 7 7 8 9 7 3 1 4 6 2 0 1 1 1 2 2 1 2 2 0 0 1 1 2 3 3 5 4 1 2 1 2 2 2 5 3 1 3 5 7 9 9 9 9 9 8 8 8 6
9 8 7 6 6 6 5 5 5 6 7 7 7 7 5 3 3 2 1 1 1 1 1 1 3 2 0 1 2 1 1 1 3 4 2 8 8 4 5 5 3 5 7 5 4 4 4 3 1 1 1 0 1 0 0 1 1 2 2 1 1 2 2 2 3 5 3 0 3 3 1 1 2 4 2 1 3 5 6 8 9 9 9 9 8 7 6 5
9 7 7 6 5 5 5 5 5 6 7 6 7 6 3 2 1 0 0 0 0 1 1 1 1 2 0 0 1 0 1 3 4 5 1 7 8 6 7 5 2 2 5 3 4 4 2 0 0 1 1 1 0 0 0 0 1 1 1 1 1 1 1 2 1 4 5 2 4 4 1 2 2 2 2 3 4 6 7 8 9 8 8 8 7 7 7 6
8 7 6 5 5 4 4 5 5 6 7 7 6 3 2 1 2 2 2 2 2 1 1 1 0 1 1 1 1 2 4 6 5 4 1 6 9 7 5 3 1 2 4 3 2 2 1 1 0 0 0 1 1 1 0 1 1 1 1 2 1 1 1 2 1 4 7 4 3 1 2 3 4 3 3 5 4 6 7 5 6 7 7 7 7 7 7 7
8 7 5 5 4 3 4 5 5 6 6 6 4 2 3 2 2 2 2 3 1 1 0 0 1 0 1 2 3 5 7 7 5 2 3 7 9 7 3 3 2 2 2 1 1 1 1 1 0 0 0 1 0 1 0 2 1 0 1 1 1 1 1 2 1 3 5 2 2 1 2 3 6 4 3 5 4 5 6 4 4 5 6 7 7 7 7 7
7 5 5 4 3 3 4 4 5 5 5 5 2 2 2 2 2 1 0 1 2 2 2 2 2 1 3 2 3 7 6 3 1 2 5 8 10 9 3 3 2 2 2 1 0 1 0 1 1 2 2 2 2 1 1 3 3 2 2 2 1 1 1 1 1 2 2 1 1 1 2 3 6 5 1 2 3 6 7 6 6 7 7 8 9 9 9 8
5 4 4 3 3 3 3 4 4 5 5 4 2 2 1 0 1 2 2 2 4 5 6 4 2 4 6 5 5 4 3 1 1 1 5 8 9 7 1 3 1 1 1 1 1 0 0 0 1 4 3 1 1 3 4 4 3 2 2 2 2 2 2 0 0 2 2 1 1 1 2 2 4 5 1 2 4 8 9 9 8 9 9 8 10 11 9 6
5 3 2 2 3 2 3 3 3 3 4 5 4 3 2 0 2 4 2 3 4 3 4 4 2 5 7 7 7 2 1 0 0 0 5 7 3 2 1 2 1 1 1 0 1 0 0 2 3 3 2 3 4 4 4 3 3 2 2 2 1 1 2 1 0 1 2 1 0 1 3 3 3 4 3 2 5 5 5 8 8 9 11 9 10 10 9 7
5 2 1 2 1 2 2 2 2 2 3 5 6 5 1 4 4 5 4 1 4 1 1 2 2 3 4 4 6 6 2 1 2 1 6 8 1 1 3 3 1 1 1 2 2 1 0 1 1 2 4 4 4 3 4 4 2 2 2 2 1 0 2 1 1 2 2 2 1 0 3 4 1 2 3 1 3 3 2 5 6 6 8 9 9 8 9 10
4 2 2 1 1 2 2 2 3 2 3 4 5 4 4 8 5 4 4 1 3 3 2 3 2 3 2 1 6 7 2 1 2 1 6 8 2 2 3 3 2 1 1 2 3 3 2 1 3 4 4 3 3 3 4 3 2 1 2 3 2 1 2 2 1 2 1 1 2 1 3 2 0 1 2 1 2 3 2 2 4 4 5 4 5 7 9 11
4 3 2 2 2 2 2 3 3 3 1 3 2 5 9 11 7 4 3 1 1 3 2 3 2 3 2 2 5 4 0 1 2 2 5 7 4 3 1 2 1 1 2 2 2 2 2 0 3 4 2 2 3 3 4 4 2 2 4 7 5 3 3 2 1 1 1 0 3 3 4 1 1 0 3 1 3 3 2 2 1 1 3 5 7 10 10 10
4 3 2 2 2 3 3 2 3 4 1 1 2 8 12 14 7 5 3 2 1 1 2 2 1 2 3 2 3 3 0 0 2 1 3 5 4 3 1 1 1 0 3 3 2 1 1 1 2 2 3 3 2 1 4 5 3 1 3 5 5 3 3 3 1 1 2 2 2 2 3 3 1 1 2 1 3 3 1 2 3 2 2 5 8 9 9 10
4 2 2 2 1 2 2 1 3 3 0 1 6 11 14 13 3 7 2 3 1 1 1 1 1 2 2 1 2 2 1 1 1 1 1 3 2 2 1 2 0 1 2 2 0 0 2 2 2 2 3 2 1 1 3 6 4 1 0 4 7 5 4 4 2 1 1 2 1 1 1 3 4 0 1 1 3 3 1 3 2 2 2 4 6 8 9 11
4 2 1 2 2 2 1 0 2 1 0 4 9 12 14 8 3 5 1 2 1 2 0 1 1 1 1 1 2 0 1 1 1 0 1 1 1 1 0 3 3 3 2 1 2 0 2 2 1 2 1 1 2 0 5 8 3 1 1 3 5 4 3 3 2 1 1 2 3 1 1 3 4 0 1 1 3 2 3 5 5 4 4 5 5 7 9 10
4 3 1 2 2 1 1 2 2 1 2 7 10 14 11 1 4 1 2 2 1 1 0 1 0 1 1 1 2 2 1 1 2 1 2 3 2 2 1 2 4 4 2 1 3 1 1 2 2 3 2 2 1 1 4 7 2 1 4 5 6 5 5 3 1 2 2 2 5 2 1 3 4 1 1 1 0 1 3 4 5 5 6 6 6 7 8 8
5 3 1 2 2 1 2 2 1 2 5 9 12 13 5 3 2 2 2 1 1 0 1 1 1 1 2 2 1 3 1 1 3 2 1 1 3 4 1 1 3 4 1 2 2 2 2 1 1 2 2 1 3 3 1 1 3 4 4 4 6 4 3 2 2 1 1 3 5 1 1 3 4 1 1 1 1 2 4 4 5 6 8 8 8 9 8 8
5 3 1 2 2 2 3 2 2 4 7 10 12 8 1 1 1 2 1 1 0 1 1 1 1 2 3 2 1 3 2 2 3 3 1 1 1 3 1 1 2 2 1 1 1 3 2 1 1 2 1 2 3 4 2 2 3 3 1 2 3 1 1 1 1 1 3 4 1 3 2 3 5 2 1 1 2 3 4 4 5 8 10 10 10 10 10 9
5 3 2 1 3 3 3 3 5 7 8 11 9 3 2 1 0 1 1 1 0 1 1 1 2 2 2 1 3 4 2 2 3 2 2 1 1 2 1 1 1 1 1 0 1 3 3 1 1 2 1 2 2 3 3 1 2 2 2 2 2 1 1 1 1 1 4 3 1 3 1 2 5 4 1 1 1 2 2 3 4 7 10 10 11 11 10 8
5 3 2 3 4 5 5 6 8 8 8 8 4 2 3 1 1 1 1 1 1 1 1 0 2 1 1 1 3 4 1 2 3 2 1 1 1 2 1 1 1 1 1 0 0 3 3 1 1 1 1 1 2 3 2 2 3 4 3 3 3 2 1 2 2 1 4 2 2 1 1 1 3 2 1 1 1 2 2 3 4 6 8 9 10 9 8 7
6 3 4 4 5 5 6 6 7 7 6 5 2 2 3 1 1 1 1 1 1 1 1 1 1 2 2 2 2 3 1 1 3 3 2 1 1 2 1 2 3 1 1 1 1 1 2 2 1 0 0 1 1 2 1 2 3 2 1 1 3 3 2 3 3 3 4 0 2 1 2 2 2 1 2 2 2 2 3 4 5 5 6 7 7 7 7 7
9 4 4 3 4 5 6 5 6 6 4 3 3 2 2 1 1 1 1 1 2 1 1 1 1 2 3 2 1 2 1 1 2 2 3 3 1 1 1 2 3 2 1 1 1 1 2 3 2 2 2 1 1 0 1 2 3 1 0 1 2 2 2 1 1 1 2 0 1 2 2 2 1 1 1 1 1 3 4 5 5 6 6 6 6 6 7 8
9 4 3 4 6 8 6 5 5 5 2 2 3 2 1 2 1 1 1 1 1 1 1 1 2 2 1 1 1 2 2 2 3 2 2 2 1 1 1 1 1 1 0 1 1 1 1 2 1 2 1 1 1 1 1 1 1 2 2 3 1 1 3 2 0 2 1 3 2 1 2 2 1 1 2 2 2 3 4 4 5 6 6 6 6 7 8 9
10 2 3 6 11 11 6 4 4 3 2 3 2 1 2 1 1 2 1 1 0 1 1 0 1 1 0 0 1 2 3 2 2 2 1 0 1 2 2 2 1 1 1 2 2 1 2 2 1 1 1 1 1 1 3 2 0 2 2 3 3 1 2 2 1 1 0 4 2 1 3 3 3 2 4 5 3 2 2 4 4 4 5 6 6 7 8 9
8 2 4 6 15 14 5 4 3 0 3 3 1 1 1 1 1 2 1 1 1 1 1 1 0 0 1 1 1 2 2 2 1 1 1 0 1 1 1 1 1 2 2 2 1 1 1 3 1 0 1 2 2 1 2 3 2 1 0 2 2 3 2 1 2 1 2 3 1 1 2 2 4 3 5 8 7 4 1 2 3 4 5 5 5 7 9 9
5 1 2 6 17 16 5 3 1 2 3 1 1 0 1 1 1 2 1 0 1 1 1 1 0 1 1 1 1 1 1 1 0 0 0 0 1 1 2 0 1 2 2 1 1 1 0 2 1 1 1 3 2 1 2 1 3 2 1 1 1 2 2 1 1 1 3 3 1 1 1 2 4 2 4 9 8 5 3 2 1 2 3 4 4 6 7 8
4 1 1 8 19 16 3 3 2 3 2 0 1 1 0 1 2 2 1 1 0 0 0 1 1 0 1 1 1 1 0 0 2 1 0 1 1 0 2 1 2 3 2 2 2 0 0 1 2 1 1 3 1 1 2 0 2 1 2 2 1 1 0 1 1 1 1 2 2 2 3 2 1 1 4 8 9 6 4 3 1 0 2 3 4 5 6 7
2 1 1 11 19 12 1 3 3 2 1 0 1 1 1 0 1 2 2 1 0 0 0 2 2 1 1 1 1 2 1 0 1 1 1 1 0 0 0 0 1 3 2 2 2 1 0 1 2 2 2 3 1 1 1 1 0 0 1 2 1 2 2 3 3 1 0 2 2 2 3 2 2 1 3 5 7 5 3 2 2 1 2 3 4 5 5 6
2 1 3 14 20 8 1 1 1 1 1 1 0 2 1 1 0 1 2 2 1 1 1 1 1 1 2 1 1 2 2 1 1 1 1 1 1 0 1 1 2 3 1 1 1 1 1 1 1 3 4 3 2 1 1 2 1 0 1 0 1 1 2 4 4 2 2 1 1 1 2 1 1 0 1 2 3 3 2 3 3 1 3 3 4 4 5 6
1 2 4 16 19 5 2 1 1 1 0 1 1 1 1 1 0 0 1 2 2 1 1 1 1 1 1 1 1 3 2 2 2 1 0 1 2 0 3 4 2 2 0 1 1 0 1 1 1 2 2 3 2 1 1 1 2 1 0 1 1 1 0 2 2 1 2 3 3 2 3 2 1 1 0 1 1 1 2 4 3 0 3 3 4 4 5 5
1 2 3 15 18 3 3 0 1 1 1 2 2 1 1 0 0 1 1 1 2 1 1 1 0 0 0 1 1 2 1 1 1 1 0 2 2 1 2 5 2 1 1 0 1 1 1 1 1 2 2 3 2 2 2 2 1 1 0 1 0 1 3 1 1 1 3 3 3 4 4 2 2 1 0 1 0 1 2 2 2 0 2 3 4 4 4 4
1 0 2 10 17 8 3 0 1 2 1 1 2 2 2 1 0 2 1 1 2 1 0 0 0 0 1 1 1 2 2 1 0 0 1 1 0 0 2 5 4 2 1 2 1 1 2 1 2 3 4 4 4 4 3 1 0 0 0 1 1 2 3 1 1 2 3 2 3 4 2 1 2 2 3 2 0 1 4 3 2 2 2 2 3 4 4 5
1 1 2 5 9 6 2 1 1 1 1 1 1 1 2 1 2 2 1 1 2 1 1 1 0 0 1 1 1 2 2 2 1 1 1 1 0 0 2 4 3 3 3 5 4 1 1 1 2 4 6 6 6 4 1 1 2 2 1 2 2 1 1 1 1 3 3 2 3 4 1 1 5 7 8 6 2 3 5 4 4 4 3 2 3 3 4 4
1 1 2 2 2 3 2 2 3 2 0 0 0 1 1 2 3 2 1 1 1 1 1 2 1 1 0 1 2 1 1 1 1 1 2 0 1 1 3 2 3 6 6 4 3 1 1 1 1 3 5 5 4 3 1 1 4 4 3 4 3 2 2 3 4 3 3 2 5 4 3 4 6 7 9 8 6 5 6 5 4 5 4 4 4 4 4 4
2 1 1 1 1 1 1 2 3 2 1 1 1 1 2 2 2 1 1 2 2 1 1 1 2 3 1 1 1 2 1 1 1 0 1 1 1 1 2 1 2 6 6 2 2 2 1 2 2 2 4 3 2 3 2 3 4 4 4 6 5 4 4 6 7 4 5 7 6 5 8 8 6 5 7 7 6 6 5 4 3 4 5 5 5 4 4 4
2 1 1 1 0 0 1 3 2 1 2 2 2 2 2 2 2 1 2 2 2 3 2 0 1 4 3 1 0 1 1 0 0 0 2 1 1 0 0 1 0 3 3 2 2 1 1 2 2 2 3 3 4 3 2 4 4 4 6 7 6 6 7 8 8 5 6 9 4 2 7 9 5 5 5 2 1 2 1 1 3 4 5 6 6 5 4 3
2 1 2 1 1 1 1 2 1 1 2 2 2 2 2 1 3 2 2 2 2 2 2 1 1 2 2 2 2 2 1 2 2 1 1 1 1 1 1 1 1 1 2 1 0 0 1 1 2 2 3 4 3 3 4 6 6 8 9 6 5 7 8 7 6 3 4 7 4 3 7 7 4 5 4 1 2 1 2 4 5 5 5 6 6 5 4 3
3 1 1 1 1 3 2 2 2 1 1 2 2 2 2 2 4 3 1 2 2 2 2 1 1 1 2 4 5 3 2 3 4 3 2 1 1 1 1 1 2 1 2 0 1 1 1 1 1 1 4 5 4 7 8 6 6 10 9 7 8 10 7 5 5 5 6 8 7 7 7 6 4 4 5 3 3 4 5 5 5 4 4 6 5 5 3 3
5 1 2 1 0 2 2 1 1 1 1 2 2 2 1 2 4 2 1 1 3 3 2 2 1 1 1 3 4 4 6 6 7 7 4 3 3 2 1 1 2 2 1 1 1 0 1 2 1 2 4 4 3 4 4 4 6 9 6 6 11 11 9 7 6 6 8 8 7 6 5 3 2 3 5 4 4 4 4 4 4 4 4 4 4 4 2 2
Wind_Direction
332 333 331 330 327 325 321 317 317 317 316 315 314 313 313 314 314 316 317 319 319 314 310 314 316 318 319 318 322 322 319 318 316 313 267 262 280 251 246 229 176 172 162 137 125 121 107 108 99 107 155 144 356 357 88 354 131 187 138 159 202 192 221 196 194 195 283 316 306 318 344 300 276 128 112 124 123 126 125 96 71 66 56 92 121 132 140 141
333 332 330 329 328 326 322 321 321 320 317 314 313 313 312 312 312 315 317 320 319 314 314 316 316 319 319 321 325 322 321 320 310 291 269 273 269 238 220 184 170 170 161 139 121 111 113 113 56 107 121 154 3 3 159 356 215 155 115 206 221 200 224 200 197 213 257 300 307 311 323 279 238 133 153 161 135 141 137 124 105 91 90 114 131 135 134 139
333 332 331 331 332 330 326 324 321 319 317 315 312 310 311 310 311 312 314 316 315 313 315 317 317 317 320 323 322 322 322 318 306 279 304 347 274 222 198 171 157 160 152 133 122 107 111 135 157 132 87 94 53 349 141 89 200 177 160 233 235 216 252 225 213 236 246 283 298 304 320 281 217 149 188 159 145 164 162 152 148 141 140 141 142 138 135 143
333 332 332 332 331 329 327 323 319 318 318 314 310 308 305 304 306 306 308 311 311 313 314 315 317 318 323 323 321 325 322 309 299 328 347 346 298 192 176 167 155 154 143 127 119 108 103 116 114 88 102 114 31 308 163 168 174 162 203 238 238 181 265 245 215 240 247 251 259 298 316 250 201 201 168 152 154 194 196 188 173 159 157 152 148 143 143 148
331 330 329 328 326 325 324 322 319 316 314 312 309 307 304 303 304 304 306 309 310 310 310 314 317 321 325 324 326 323 308 29 107 319 347 356 200 160 158 158 156 157 145 129 113 111 102 90 80 65 87 123 89 212 156 103 126 177 219 243 235 181 262 269 233 239 231 210 229 298 313 327 27 189 166 167 174 187 197 227 287 159 161 156 152 148 149 153
328 327 326 325 324 323 322 320 317 312 310 308 305 305 304 303 303 304 305 307 307 304 310 318 322 325 330 331 331 318 297 73 320 320 352 30 147 148 149 153 155 152 148 134 104 111 102 72 79 84 73 103 149 197 130 171 176 228 238 250 245 215 251 274 255 234 182 241 267 294 319 319 228 187 170 178 183 1 325 249 154 146 159 153 148 150 153 157
326 324 323 323 321 320 319 318 317 316 313 310 307 303 302 302 302 304 302 300 300 304 315 324 328 327 336 342 331 336 334 284 309 322 350 120 150 148 149 152 152 144 147 141 106 97 103 85 105 118 99 95 158 241 73 215 224 248 263 267 258 214 233 255 254 260 231 262 271 257 311 266 218 185 173 181 123 334 309 164 132 134 149 146 144 152 155 154
322 321 321 320 319 318 319 319 319 319 317 315 312 305 300 299 298 301 299 297 298 308 319 323 329 334 347 354 307 20 103 301 322 321 358 148 156 154 153 148 147 146 146 153 138 139 151 114 127 147 88 71 159 224 170 202 188 217 246 257 260 215 236 257 264 279 274 260 256 202 264 259 212 141 169 187 118 357 118 126 125 131 145 147 148 153 153 154
321 319 319 319 319 320 321 321 321 321 321 319 317 311 304 299 295 297 296 297 301 308 316 320 330 342 359 356 237 58 146 333 344 20 99 154 165 161 161 154 153 156 148 158 158 154 169 158 151 177 168 93 179 242 183 220 202 200 228 245 255 265 268 286 293 282 277 266 212 194 271 72 92 118 163 177 52 127 125 129 130 134 145 150 154 156 156 157
321 318 318 320 322 323 325 327 330 332 331 324 322 320 312 304 296 295 294 296 302 302 301 320 339 353 6 351 216 76 130 11 25 87 99 151 169 165 169 166 165 169 161 163 162 158 189 193 153 166 151 115 192 249 160 207 132 187 228 255 257 276 297 308 299 281 282 287 236 165 61 62 41 187 165 72 112 144 126 131 141 142 146 148 154 156 158 159
321 320 320 322 324 329 334 337 341 341 337 331 327 326 320 312 301 294 287 286 291 291 294 322 344 359 22 28 41 95 133 30 44 86 99 131 166 172 180 182 182 183 170 159 180 190 206 176 148 135 150 131 215 226 198 210 110 206 249 270 266 277 286 278 288 288 308 332 268 133 89 44 312 246 355 76 173 160 133 141 152 149 147 149 152 152 161 164
322 323 324 322 325 335 340 343 347 344 338 335 332 329 325 320 310 295 276 270 270 272 289 324 345 358 24 47 214 181 188 348 38 92 115 135 161 175 185 192 191 191 176 154 201 207 204 166 145 72 108 159 279 271 181 207 226 241 281 287 295 331 79 357 9 296 15 43 288 200 118 83 248 263 1 48 171 154 137 146 154 153 149 150 155 157 168 170
322 325 324 324 330 339 345 349 353 344 337 338 335 330 327 323 312 294 272 257 244 258 295 341 357 7 21 246 205 208 287 329 13 108 139 153 157 165 174 185 188 199 192 163 173 207 207 196 151 8 176 182 272 315 171 230 255 256 57 307 313 340 42 21 5 285 72 72 279 230 171 232 240 312 2 234 166 149 141 152 159 157 151 155 162 165 173 180
322 321 321 327 332 339 351 358 352 339 337 341 335 328 325 324 312 292 281 262 248 284 319 15 12 22 10 256 197 8 323 325 330 181 171 169 167 170 179 191 195 204 211 209 328 278 215 211 172 94 196 213 276 311 294 336 13 298 327 27 341 323 12 19 355 337 66 80 285 226 287 283 285 344 10 242 194 163 153 160 165 162 162 167 171 176 184 188
318 316 319 326 331 341 355 356 346 337 339 341 336 330 321 318 310 287 283 277 257 352 37 37 14 9 296 296 294 318 315 320 328 302 211 189 179 176 196 204 202 210 220 224 240 40 175 185 153 96 241 244 278 316 288 336 41 351 327 128 347 20 352 360 25 29 54 56 311 246 280 308 345 348 6 140 230 197 167 166 171 172 172 174 179 188 193 185
315 312 317 320 329 343 350 350 344 337 337 341 340 333 321 316 309 282 270 274 223 107 74 49 27 20 142 39 23 354 322 328 343 343 248 203 193 159 155 173 175 202 211 217 199 149 122 135 103 2 322 113 168 290 357 76 59 1 18 84 334 16 19 353 72 52 26 306 7 15 300 280 14 353 347 151 209 209 185 178 179 179 179 184 191 191 193 186
313 311 312 314 328 339 342 345 342 337 337 343 346 342 336 318 295 238 136 108 117 108 87 93 35 352 256 310 352 37 294 310 343 350 238 198 191 150 121 127 99 133 145 119 153 155 104 80 67 20 49 65 164 239 353 101 107 59 28 90 338 333 6 345 35 34 10 25 39 27 294 269 331 332 252 184 194 203 196 191 188 187 190 194 197 197 198 199
313 312 311 311 322 328 335 343 344 341 337 342 354 11 47 81 106 86 102 107 80 93 101 108 303 312 217 237 311 306 297 301 318 326 200 169 177 164 115 108 66 92 110 85 113 144 20 278 271 144 104 31 44 41 58 108 93 126 121 113 119 238 265 322 309 11 8 21 54 31 293 298 299 294 215 185 180 201 204 199 197 196 200 201 203 208 206 206
315 313 313 311 315 321 329 343 348 343 335 344 4 77 88 69 91 88 106 110 77 309 60 259 253 330 276 257 293 311 306 303 303 266 154 149 161 157 104 92 65 47 112 101 78 55 358 182 187 184 272 334 82 50 88 159 156 113 100 144 142 169 237 278 275 10 1 355 77 61 326 310 293 299 208 184 165 188 202 194 201 203 205 211 215 218 215 216
321 318 315 309 310 314 326 345 347 341 343 350 7 118 78 28 41 13 241 166 217 248 265 233 172 268 289 275 305 322 317 306 325 148 155 153 147 138 85 36 44 43 87 158 80 46 331 146 168 221 243 264 217 184 110 129 138 113 126 179 178 208 240 263 275 12 1 275 90 69 302 289 284 293 242 185 169 187 198 195 198 202 204 210 216 221 220 220
336 328 312 306 311 312 332 348 343 347 7 20 49 103 104 67 14 337 315 279 235 222 244 246 187 261 271 272 292 331 352 329 47 112 156 154 146 147 85 13 87 80 52 233 251 342 356 117 220 234 233 228 166 147 121 114 131 141 167 185 192 220 233 31 335 1 1 280 70 75 284 272 267 277 259 150 197 202 200 200 200 199 205 211 217 223 223 220
352 337 314 314 318 319 340 348 350 12 49 60 72 105 141 65 312 265 266 309 278 220 234 260 279 271 269 267 261 226 76 42 146 200 159 148 139 182 155 52 139 149 47 228 238 27 15 246 246 236 168 99 82 122 132 119 133 146 166 194 203 221 275 295 200 359 354 302 296 76 302 281 259 281 284 201 211 221 210 211 212 201 201 208 215 221 219 216
359 356 338 338 346 352 355 8 18 47 88 84 86 105 114 1 335 233 203 313 293 279 200 235 234 247 270 273 220 179 152 170 167 238 172 159 122 185 145 103 118 107 117 192 183 181 222 226 212 138 140 123 85 109 128 117 131 159 163 199 213 76 286 248 139 351 1 9 352 220 291 283 262 280 278 261 243 271 277 228 229 220 213 212 217 225 219 215
9 16 9 17 56 20 18 63 53 66 110 118 103 71 353 348 351 207 188 353 293 292 235 210 212 217 247 275 171 165 152 184 198 231 169 161 112 131 151 124 135 158 212 179 152 199 249 132 114 116 140 152 122 132 155 153 163 195 194 216 223 196 228 248 322 318 302 93 52 312 269 260 35 182 185 34 316 276 286 233 219 220 235 245 246 245 231 222
18 15 35 59 52 32 57 88 56 49 92 142 120 6 349 346 345 185 176 19 255 295 268 197 221 212 192 124 156 175 161 191 236 235 176 166 135 134 142 121 176 209 181 146 137 217 281 55 144 138 132 160 151 166 199 190 184 216 216 219 214 192 193 211 309 311 259 193 52 353 286 237 40 146 166 34 326 273 307 333 313 181 200 227 237 236 233 231
25 21 43 44 52 54 64 96 44 21 359 175 343 343 344 342 340 168 168 12 126 322 324 188 213 189 178 137 154 185 157 173 261 243 177 172 144 125 135 129 352 336 157 160 171 238 332 77 146 141 125 147 166 213 212 187 173 216 222 197 180 161 158 160 192 240 295 309 44 356 292 274 303 112 133 12 306 268 295 359 336 338 197 214 229 233 232 232
21 26 26 23 60 47 40 100 24 16 103 306 336 339 336 337 352 162 173 17 106 306 328 271 305 167 199 197 146 173 199 20 50 97 155 189 158 56 148 185 118 105 159 171 29 139 164 123 74 81 105 136 193 257 192 177 169 178 150 151 153 156 162 159 176 212 298 309 309 56 340 281 273 164 122 306 291 276 42 49 340 304 265 242 243 243 240 238
357 9 12 8 1 348 334 350 341 337 85 336 335 334 332 339 134 160 80 62 235 283 350 317 306 155 261 350 95 61 290 349 65 65 351 149 140 35 175 200 184 153 146 212 268 9 170 185 173 162 136 219 244 150 168 178 182 359 90 123 130 131 127 133 152 149 67 286 253 156 107 265 264 210 170 226 263 264 45 15 330 314 297 279 267 261 258 256
328 335 354 355 345 342 314 315 307 270 337 340 336 333 333 4 145 129 61 110 260 284 191 310 146 155 335 28 61 10 306 347 33 331 1 86 80 48 136 182 150 130 96 276 259 252 220 240 203 178 221 251 263 44 171 182 176 107 132 103 84 76 72 79 121 132 106 262 256 226 115 263 269 271 245 234 247 296 358 338 313 312 313 309 304 292 280 274
313 310 322 350 344 344 338 327 310 346 345 338 335 336 343 130 125 46 87 176 300 286 251 309 299 315 9 70 35 3 323 324 2 344 7 87 41 42 87 152 109 119 93 1 281 267 291 282 192 193 239 186 103 70 43 148 115 144 150 99 84 70 59 67 47 69 166 239 252 314 67 249 268 290 251 337 17 296 300 306 309 319 325 327 322 317 309 296
303 295 293 335 347 350 350 347 352 346 336 333 335 340 53 107 48 95 121 265 303 334 351 356 319 3 32 72 44 10 6 359 354 353 34 67 30 50 95 185 101 111 18 11 292 306 326 177 196 260 230 133 115 90 47 51 114 147 161 112 118 75 65 112 64 94 230 243 270 26 43 216 244 248 112 41 309 273 266 279 309 322 327 329 325 325 324 314
302 286 293 323 338 338 335 322 323 323 322 330 338 5 111 343 18 137 301 336 355 334 32 334 321 23 25 40 36 4 349 19 8 24 44 359 51 65 18 242 176 236 292 321 319 333 311 212 275 299 182 147 158 119 94 97 154 177 162 147 209 243 117 222 244 191 236 255 39 35 22 206 241 262 39 44 299 295 269 268 302 317 317 322 326 329 330 328
317 282 301 324 340 339 328 315 307 305 320 335 347 68 78 65 165 210 286 3 36 351 82 357 337 22 3 46 25 349 359 24 351 16 57 340 60 67 10 36 27 270 279 247 335 333 299 270 6 295 131 74 216 191 177 185 187 197 179 173 223 220 162 229 220 236 260 269 47 35 307 253 245 266 24 15 324 338 324 312 322 317 312 317 323 328 337 347
340 298 301 317 347 349 334 321 305 302 327 352 40 80 72 120 201 214 250 289 306 340 44 19 353 27 41 54 356 327 41 38 343 358 11 14 55 46 50 43 22 19 112 159 199 314 287 276 18 335 339 12 257 224 212 123 156 195 171 164 212 201 212 245 225 241 260 272 69 136 209 233 230 55 8 319 340 357 357 353 337 325 324 320 316 329 354 9
347 329 328 343 12 357 345 339 322 315 337 27 66 77 111 193 237 194 212 284 287 317 2 37 56 56 37 20 337 348 40 35 15 12 14 32 55 28 24 7 8 52 128 194 189 136 268 267 291 307 282 314 342 200 115 120 141 130 41 172 213 202 185 241 296 293 291 256 153 193 223 258 274 11 359 324 44 37 12 359 350 345 342 334 333 354 11 17
347 338 25 48 23 355 346 351 334 324 354 68 72 78 178 216 240 167 170 279 281 310 322 8 55 80 32 321 343 11 3 9 21 22 31 54 67 22 343 309 347 30 202 230 197 170 222 263 308 304 285 48 351 219 128 290 176 135 188 189 153 89 125 128 97 48 12 250 211 173 229 233 217 201 131 119 88 53 18 4 3 350 345 355 0 6 16 19
351 1 97 48 10 352 330 326 323 320 40 82 106 182 215 197 198 190 206 296 222 102 89 6 30 80 203 271 303 333 348 11 6 12 37 89 83 24 334 286 321 330 293 244 227 233 243 257 331 317 163 80 296 201 80 32 342 156 196 160 124 112 97 117 213 69 117 245 226 168 228 211 204 202 148 153 157 103 26 6 5 357 7 21 14 12 25 25
353 56 111 31 2 351 318 286 298 51 73 71 114 235 232 164 178 213 233 294 210 95 92 172 35 37 213 192 227 302 335 355 354 14 31 184 112 44 352 287 283 352 330 236 202 51 263 266 324 18 250 343 346 222 119 62 34 359 199 117 126 229 219 158 203 194 213 242 230 184 239 230 221 206 162 171 168 144 112 9 17 23 25 22 14 17 27 27
7 81 131 9 358 350 320 230 233 79 73 58 163 191 234 211 253 233 215 234 171 105 101 212 290 51 181 172 181 234 312 336 108 76 286 184 125 46 28 308 258 348 7 188 171 62 285 274 289 139 260 320 1 271 237 125 82 68 131 110 33 281 255 204 192 219 226 233 235 209 226 224 220 202 167 170 160 155 161 124 59 29 19 15 15 14 21 26
24 50 217 355 355 348 331 159 96 57 65 273 203 177 237 248 272 263 230 284 144 136 203 189 171 146 187 199 214 196 9 161 159 160 249 136 136 356 10 322 288 340 6 96 106 60 96 241 262 309 304 274 289 10 292 220 119 159 196 181 140 95 289 233 164 69 243 212 183 208 235 222 157 155 184 163 154 168 168 139 150 290 22 28 24 8 13 27
24 32 270 349 350 343 347 110 54 46 119 120 194 220 314 345 287 311 312 343 48 78 60 152 163 159 167 194 235 187 147 148 169 171 194 171 159 215 48 6 285 308 329 79 72 29 89 177 246 296 299 269 305 36 331 311 356 271 244 223 186 167 198 225 215 153 289 240 187 192 237 230 108 159 208 155 144 165 174 190 219 119 57 41 30 12 14 29
53 11 310 350 349 340 101 92 359 51 147 168 203 237 298 11 128 301 321 354 32 50 46 102 151 162 172 181 202 177 158 158 186 206 203 140 74 310 340 340 262 267 295 69 30 327 121 131 230 263 276 286 320 345 273 263 231 99 321 271 173 178 202 233 236 198 174 208 107 113 246 238 85 117 222 125 122 158 201 240 241 106 71 52 39 26 28 37
75 280 315 355 350 333 110 63 263 62 55 283 329 250 261 349 200 279 342 1 11 23 17 27 156 174 200 200 178 179 188 200 175 150 161 123 111 173 319 319 269 221 89 128 182 175 140 140 251 263 287 300 300 105 138 206 173 159 23 78 177 237 217 252 261 177 202 192 153 200 241 191 120 30 7 115 130 191 219 241 247 72 79 75 55 40 36 40
20 257 291 360 2 18 145 103 208 133 340 324 358 344 307 335 16 11 4 349 357 39 51 25 96 130 61 83 128 148 178 214 172 94 120 137 137 164 329 331 326 110 60 282 177 200 226 203 220 268 296 289 261 200 188 196 183 224 335 61 251 119 103 115 117 150 226 209 184 233 244 165 129 54 148 178 29 181 185 209 238 69 83 78 59 49 43 40
345 262 250 357 17 48 119 302 143 134 15 8 21 5 353 334 11 11 5 7 18 56 148 31 88 89 61 83 95 79 57 10 139 120 131 121 29 241 350 348 5 48 22 19 51 230 240 191 190 238 260 255 245 249 259 260 246 286 276 209 213 127 130 173 159 187 223 195 183 225 242 128 139 173 199 208 320 203 190 177 155 130 108 85 70 60 49 44
10 37 297 338 19 45 86 22 48 97 84 72 51 24 15 338 327 345 17 70 29 31 52 16 335 16 53 76 108 90 43 30 58 117 120 112 230 320 343 346 5 5 21 48 47 58 158 209 219 230 248 254 255 260 320 11 258 252 255 237 215 145 161 158 155 202 206 175 196 212 236 201 181 187 208 214 202 204 202 179 148 143 146 127 101 86 70 61
66 64 1 336 354 22 54 40 29 27 15 37 42 30 10 331 321 337 46 69 22 29 61 34 19 22 161 136 129 137 76 41 51 105 117 106 259 298 331 350 4 344 353 31 21 50 130 242 216 205 242 256 266 259 133 171 255 256 264 260 237 205 181 188 220 211 135 197 235 199 188 224 203 195 215 217 207 211 216 208 175 148 144 138 122 109 93 77
41 136 13 332 307 5 29 358 6 25 22 15 89 49 15 12 359 345 359 11 11 17 29 57 39 32 30 168 153 148 146 104 44 65 160 171 281 302 359 51 1 337 347 19 6 41 174 247 188 188 244 242 237 244 196 208 247 244 247 256 252 235 206 211 232 206 168 229 249 178 187 218 213 209 227 225 212 207 206 206 172 131 129 135 134 123 101 81
43 87 332 340 20 88 293 320 334 53 40 17 34 46 37 43 32 351 308 338 1 8 14 148 29 24 31 14 148 132 128 175 103 280 199 158 43 144 40 89 230 337 12 43 16 46 214 254 154 182 259 254 237 237 189 212 244 244 240 241 240 244 236 234 244 223 209 244 273 150 211 227 210 216 241 246 171 185 187 188 160 139 136 142 141 129 107 89
43 35 331 359 44 21 317 340 359 94 35 7 25 42 51 60 26 354 331 1 348 344 11 74 39 23 47 47 70 102 44 336 341 344 178 154 33 216 224 216 178 11 25 69 97 106 238 268 107 140 261 260 248 246 225 224 240 249 250 247 243 247 243 242 248 231 232 261 267 202 234 247 233 239 261 353 74 150 195 181 160 142 148 154 143 125 109 83
17 278 327 8 7 357 349 1 24 62 33 17 16 12 29 46 12 338 334 25 20 13 2 333 310 29 61 57 61 62 355 307 293 290 238 215 302 267 246 227 185 258 343 120 163 150 208 232 105 146 260 254 228 244 251 252 257 254 249 245 246 243 234 228 225 201 210 239 241 226 239 254 247 247 254 242 232 233 209 172 149 146 165 162 135 111 101 70
4 308 9 4 246 10 3 353 18 56 94 29 358 340 2 18 349 329 159 73 43 51 14 296 229 94 56 55 39 351 316 285 270 273 259 253 284 285 264 182 183 245 291 161 212 193 186 224 189 195 257 259 221 242 276 312 286 262 237 228 241 239 231 228 222 208 207 220 232 235 246 282 316 270 251 229 214 221 195 149 141 157 172 168 142 120 104 69
Height
798 797 796 796 795 794 793 792 791 790 789 788 788 787 787 786 786 785 785 784 784 784 783 783 782 781 781 779 778 777 775 774 773 773 772 767 766 767 767 768 769 770 772 772 773 773 774 775 774 775 774 775 778 777 778 778 778 779 786 793 793 795 790 782 782 780 778 774 769 768 770 772 770 767 765 763 765 767 771 772 771 772 771 771 772 773 777 781
798 797 796 795 793 793 792 791 790 789 789 788 787 787 786 785 785 784 784 784 784 783 783 782 781 781 780 778 777 776 774 773 772 770 767 764 765 766 767 767 769 770 771 772 772 773 774 775 774 774 775 776 779 778 778 779 778 783 791 793 789 789 782 776 778 776 775 773 769 768 769 771 768 766 765 768 772 769 772 775 774 776 776 774 774 775 778 781
797 796 795 794 793 792 791 790 790 789 788 787 787 786 786 785 784 784 783 784 783 783 782 781 781 780 779 778 777 776 774 773 770 767 764 763 763 763 766 767 769 770 771 772 772 773 773 774 774 774 776 777 780 779 778 779 780 783 788 790 785 781 778 775 776 774 773 772 771 770 769 769 767 766 765 768 773 770 770 772 773 776 778 776 775 776 778 781
796 795 794 793 792 791 791 790 789 788 788 787 786 785 785 784 783 783 783 783 782 782 781 780 780 779 778 777 776 775 774 772 767 764 763 762 762 762 764 767 768 770 771 771 772 773 773 773 773 774 776 778 781 780 779 779 781 783 784 784 780 780 779 772 772 772 771 772 772 771 769 769 766 765 766 767 773 773 769 766 766 770 773 775 775 776 778 781
795 794 793 793 792 791 790 789 788 788 787 786 786 785 784 783 783 782 782 782 781 781 780 779 779 778 777 776 776 775 774 773 767 763 763 762 761 761 764 766 768 769 770 771 772 773 773 773 773 775 777 779 781 779 780 779 780 782 780 778 777 779 778 768 768 770 769 772 772 771 768 767 766 766 766 765 769 770 766 764 764 766 768 770 772 774 778 780
795 794 793 792 791 790 789 788 788 787 786 785 785 784 783 783 782 782 782 781 781 780 779 778 778 777 776 775 775 774 773 772 766 763 763 762 761 762 765 767 769 769 770 771 772 773 773 774 774 776 778 779 782 780 780 780 780 780 778 777 775 776 775 768 767 767 768 771 770 770 767 766 768 767 765 765 766 765 764 764 764 766 769 770 771 774 777 780
794 793 792 791 790 789 788 787 786 786 785 784 784 783 782 782 782 781 781 780 780 779 778 778 777 776 775 775 774 774 773 769 764 763 763 762 763 764 765 767 768 769 770 771 772 773 774 774 774 777 779 780 784 782 780 780 780 781 779 776 773 773 773 767 765 767 769 769 767 768 768 766 767 768 767 766 766 765 764 763 763 767 771 773 775 777 779 782
793 792 791 790 789 788 787 786 785 785 784 783 783 782 781 781 781 780 780 779 778 778 778 777 776 776 775 774 773 773 772 767 763 763 763 763 764 764 765 767 769 769 770 771 772 773 773 774 775 778 780 781 783 782 780 780 781 782 779 774 772 771 768 764 765 767 768 767 765 768 768 767 767 768 769 767 766 766 765 764 764 768 772 775 777 779 781 783
792 791 790 789 788 787 786 785 785 784 783 782 782 781 780 780 779 779 779 778 778 777 777 776 776 775 775 774 773 771 769 765 763 763 763 763 764 765 766 767 768 769 770 771 771 772 774 775 776 776 778 781 782 780 780 781 780 778 775 773 771 768 765 765 766 766 767 765 764 766 767 767 767 768 769 768 767 766 766 766 766 769 773 776 778 780 781 782
791 790 789 788 787 786 785 785 784 783 782 781 781 780 779 779 778 778 778 777 777 777 776 776 775 775 774 773 772 770 767 764 764 763 763 764 764 765 766 767 768 769 770 771 772 773 773 773 774 774 775 780 781 780 780 779 777 775 774 772 770 768 767 768 767 766 766 765 764 765 767 768 767 768 768 769 769 767 767 769 768 769 773 776 777 780 781 782
790 789 788 787 786 786 785 784 783 782 781 781 780 779 778 778 777 777 777 776 776 776 775 775 775 774 774 773 771 769 765 764 764 763 764 765 765 766 766 767 768 768 769 771 772 773 773 772 773 773 776 779 779 780 778 775 774 774 774 771 768 767 769 769 767 767 765 765 765 764 766 768 766 766 768 770 770 767 768 771 771 771 773 776 778 780 781 782
789 788 787 786 785 785 784 783 782 782 781 780 779 778 778 777 776 776 776 775 775 775 775 775 774 774 774 772 770 766 763 764 764 764 765 765 766 766 767 767 768 769 769 771 772 772 772 772 772 774 777 778 779 780 776 774 774 774 774 772 767 764 766 766 765 767 765 765 765 763 767 770 766 767 769 770 770 768 769 771 773 774 775 776 778 780 781 782
787 787 786 785 785 784 783 783 782 781 780 779 778 778 777 776 776 775 775 775 775 775 775 774 774 774 773 770 765 764 763 764 764 764 765 765 766 767 767 768 769 770 770 771 772 772 773 772 773 774 775 777 778 777 773 773 774 774 775 775 771 768 767 766 767 766 764 767 765 763 775 775 766 767 770 771 770 768 771 772 773 775 776 778 779 780 782 783
786 785 785 784 784 783 783 782 781 780 779 779 778 777 776 776 775 775 775 775 774 774 774 774 774 774 772 767 763 763 763 763 763 764 764 765 766 766 767 768 769 770 771 771 772 772 772 773 774 774 775 776 776 773 773 775 775 776 776 779 782 779 771 767 769 766 762 768 764 763 778 776 766 769 771 773 772 769 771 773 774 776 777 778 780 781 781 782
785 785 784 783 783 782 782 781 780 779 779 778 777 776 776 775 775 775 774 774 774 774 774 774 774 774 772 765 762 763 763 763 763 763 763 764 765 766 767 767 769 770 770 771 772 772 773 773 774 776 776 774 774 776 776 775 777 780 780 783 787 783 774 769 770 769 767 769 764 765 777 774 769 773 773 774 774 771 772 773 774 776 777 778 779 780 781 782
784 784 783 783 782 781 781 780 780 779 778 777 776 776 775 775 774 774 774 774 774 774 774 775 774 774 771 765 763 763 762 763 762 762 763 763 764 765 766 767 768 769 770 771 772 773 773 774 776 778 776 775 777 778 778 779 780 783 783 786 788 782 777 772 769 772 772 769 765 768 775 773 772 775 774 775 775 774 774 775 776 776 777 778 778 779 780 782
783 782 782 782 781 781 780 779 779 778 777 777 776 775 774 774 774 774 774 774 774 774 774 774 774 774 768 763 763 763 763 762 762 762 762 763 765 765 766 767 768 769 770 771 772 773 774 775 778 779 778 780 782 778 781 789 787 785 786 788 793 789 783 778 771 771 772 769 770 773 773 772 773 774 775 775 775 776 775 775 776 777 777 777 778 779 781 782
782 781 781 780 780 780 779 779 778 777 777 776 775 775 774 774 774 774 774 774 774 774 775 774 774 774 769 763 763 763 762 761 761 761 761 762 764 765 766 767 767 768 770 772 773 773 775 777 778 778 779 781 782 780 785 793 789 787 787 786 791 792 789 785 777 774 774 771 775 777 774 773 772 773 775 775 776 777 776 777 777 778 778 778 778 779 780 782
781 780 780 779 779 779 778 778 777 777 776 775 775 775 774 774 774 774 774 775 774 772 772 772 770 772 771 764 762 762 760 760 760 760 761 762 763 766 766 767 768 768 771 774 773 775 776 777 779 781 782 781 781 782 784 787 786 786 788 787 786 786 785 783 778 779 781 776 776 778 776 775 772 770 773 774 776 777 777 779 779 779 780 779 779 779 779 781
780 779 779 778 778 778 777 777 777 776 775 775 774 774 775 776 775 774 774 773 772 769 767 768 768 768 767 763 761 761 759 759 759 760 761 761 762 765 767 768 769 769 773 776 775 778 779 780 784 783 781 781 782 785 785 787 789 788 789 788 788 787 781 778 779 782 785 779 777 782 780 777 773 769 773 776 777 778 778 779 779 779 779 779 778 778 778 780
779 778 778 777 777 777 777 776 776 775 775 775 774 774 776 778 779 777 774 770 767 766 766 765 766 766 763 762 762 761 761 760 759 759 760 761 761 764 768 770 771 773 778 782 780 779 780 783 784 779 779 782 785 789 789 790 791 790 789 787 788 789 782 779 782 784 785 780 780 786 780 774 772 769 772 777 777 776 776 777 778 777 777 777 777 776 777 778
778 777 777 777 776 776 776 776 776 775 775 774 774 774 776 777 777 776 776 773 767 765 766 765 766 765 762 761 761 761 763 762 761 760 760 761 762 765 769 772 774 776 781 783 780 781 784 783 779 778 784 788 790 793 790 790 792 791 791 788 787 788 784 782 783 784 786 780 777 785 780 772 772 772 773 777 776 773 774 775 774 774 775 775 775 775 776 778
778 777 777 776 776 776 776 775 775 775 775 774 774 774 775 775 774 774 775 777 771 765 765 765 765 764 761 760 759 760 763 763 762 761 759 760 763 765 768 772 776 778 779 779 778 783 785 779 778 783 787 785 787 794 791 788 791 790 790 787 787 790 788 782 781 783 788 785 782 785 781 774 773 774 774 777 778 776 776 776 774 774 773 773 774 774 774 776
777 776 776 775 776 775 775 775 775 774 774 774 774 774 774 774 773 773 773 777 776 767 762 763 762 761 760 758 758 760 762 762 762 759 758 760 763 766 767 771 776 778 778 777 778 781 779 778 782 786 785 782 784 791 790 785 786 789 788 785 785 786 784 782 783 783 786 788 788 784 779 775 776 777 773 774 778 776 774 774 774 776 776 775 775 774 773 773
777 776 776 775 775 774 774 775 774 774 774 773 774 773 773 772 772 772 773 779 779 767 761 761 761 759 757 757 758 759 760 761 759 758 757 758 762 766 769 771 774 776 779 782 782 779 776 782 786 783 783 784 783 786 786 782 784 787 783 779 779 779 780 783 785 784 782 785 789 789 785 781 778 776 775 777 776 771 770 771 772 774 776 776 775 772 771 771
777 776 776 775 775 774 774 774 773 774 773 773 773 772 772 771 771 771 774 781 779 768 763 762 762 759 756 758 758 758 763 762 757 757 757 757 758 762 768 773 774 775 779 781 780 778 779 785 785 780 781 783 783 783 783 782 784 785 779 776 779 779 779 782 782 783 785 787 792 793 790 787 780 773 775 780 775 769 770 772 772 773 774 774 772 770 769 769
776 776 775 775 774 774 774 773 773 773 772 772 772 771 771 770 770 770 775 785 783 771 766 763 761 759 756 758 757 760 768 765 757 757 757 757 758 759 765 773 775 776 779 780 779 780 780 782 784 781 780 781 780 778 780 782 781 780 779 779 781 779 779 782 781 784 788 789 791 791 788 790 785 776 777 781 774 768 770 773 773 773 772 771 770 768 767 766
776 775 775 774 774 774 773 773 773 772 772 772 771 771 770 768 769 770 779 792 785 770 765 762 758 756 756 757 757 760 764 761 761 762 756 757 759 759 765 769 770 772 777 779 780 781 779 777 778 779 778 778 773 770 776 779 776 779 785 785 783 782 782 782 783 786 792 792 788 787 789 792 787 778 778 779 773 769 771 774 774 772 771 770 768 767 766 764
775 774 774 774 773 773 773 773 772 772 772 771 770 770 768 768 769 772 784 792 780 765 764 761 756 758 758 758 760 762 760 760 763 762 756 758 759 759 765 767 768 772 776 777 776 777 777 776 776 776 775 772 771 775 779 776 776 783 789 786 785 789 788 788 788 787 792 796 789 786 792 794 788 778 774 776 774 774 776 776 774 771 769 768 767 767 765 764
774 774 774 773 773 773 772 772 771 771 771 770 770 769 767 768 772 781 792 789 776 768 764 760 760 762 762 762 764 764 763 762 763 760 758 760 759 760 766 768 768 772 776 777 775 775 776 778 778 775 772 771 775 784 786 780 781 786 785 781 782 788 788 790 792 788 795 799 791 792 798 796 793 783 776 779 781 783 783 778 773 771 769 768 766 766 764 763
773 773 773 772 772 772 772 772 771 771 771 769 769 768 768 773 779 789 792 782 775 771 765 764 766 765 766 768 769 768 766 765 765 764 762 763 763 763 767 769 769 773 777 777 775 775 775 776 777 772 770 774 774 780 786 785 785 785 779 777 783 789 789 791 794 794 802 801 793 802 807 800 795 785 778 785 786 786 787 781 776 774 772 770 768 765 764 762
772 772 772 772 772 772 771 771 770 770 770 769 769 768 772 781 786 790 786 777 777 776 770 771 770 769 770 771 773 773 771 768 769 769 770 770 769 770 775 775 772 777 784 783 779 776 771 770 774 772 769 772 771 775 784 784 783 781 777 780 787 793 798 800 799 801 803 797 797 808 808 799 791 779 778 787 785 783 785 782 780 778 775 773 770 767 764 762
771 771 772 771 771 771 771 770 769 770 769 768 769 769 776 787 790 790 785 779 779 776 772 773 773 774 773 771 775 777 774 773 772 772 775 774 772 777 783 782 778 778 783 789 787 781 773 769 771 770 768 771 770 771 777 779 780 778 776 781 787 796 810 813 809 811 805 795 801 809 804 796 787 778 782 786 783 783 783 781 780 780 778 776 772 769 766 763
771 771 771 771 771 770 770 770 769 768 768 768 769 773 782 790 790 788 784 780 778 774 773 776 774 774 774 775 780 779 775 777 775 772 773 773 775 779 781 782 781 779 780 788 790 787 785 779 772 769 771 772 770 769 771 772 777 781 778 778 781 788 799 803 800 800 796 794 803 807 800 791 783 782 785 784 783 783 781 781 781 779 778 777 773 770 766 764
771 771 771 770 770 770 769 769 768 768 768 768 772 780 786 788 788 788 783 779 777 774 775 778 775 774 778 780 782 780 777 777 777 776 775 777 782 784 784 782 783 781 781 786 790 792 793 785 773 772 775 773 771 772 773 770 775 786 783 778 780 778 781 797 805 802 797 797 800 801 795 787 782 784 785 783 782 782 781 782 781 779 778 777 775 771 767 765
771 770 770 770 770 770 769 769 768 768 768 769 775 783 785 784 785 785 781 777 777 775 774 776 775 777 782 782 781 781 777 776 778 777 779 785 787 788 787 784 782 783 781 783 788 791 791 783 774 774 775 773 774 773 773 771 773 783 783 776 780 779 777 794 812 816 811 802 797 798 793 784 783 784 783 783 783 782 783 783 781 782 779 777 776 773 770 768
770 770 770 771 770 769 769 768 768 768 768 770 777 782 784 782 781 780 778 776 778 776 775 778 779 780 784 784 782 781 778 778 780 778 781 788 788 787 788 784 782 783 781 781 784 787 788 781 774 775 772 772 776 773 771 773 772 777 778 774 779 783 781 786 799 811 814 804 798 801 796 787 784 784 782 783 785 785 785 784 783 783 779 778 778 775 772 771
770 770 770 771 770 769 768 768 767 767 769 773 779 784 784 781 779 777 776 777 777 775 776 779 781 782 785 785 784 783 781 781 782 782 783 787 788 787 788 786 782 782 783 781 781 787 790 782 776 779 777 773 773 772 772 774 774 774 774 774 779 782 782 786 794 801 804 806 804 802 803 795 783 779 781 782 785 786 786 786 784 783 781 781 780 777 775 773
770 771 771 771 770 768 767 767 767 768 770 775 780 783 782 779 777 776 776 776 776 775 776 779 780 783 785 784 783 784 785 783 784 785 785 786 788 788 789 788 783 781 783 782 782 787 790 787 782 780 780 777 773 772 774 775 775 775 774 777 782 783 783 786 790 789 790 803 807 800 799 791 777 777 780 779 783 786 786 787 785 785 785 784 783 781 778 777
772 773 772 770 769 768 766 766 767 768 772 779 783 782 781 779 776 774 775 775 774 774 777 779 780 781 783 784 784 784 786 785 784 786 786 786 788 788 789 791 786 783 783 782 785 788 789 790 788 779 777 779 776 777 779 777 776 777 776 779 783 787 790 788 789 790 788 797 807 806 798 782 775 784 782 776 781 785 784 786 786 786 786 785 785 784 782 780
775 774 772 770 768 768 766 766 772 776 777 782 785 782 780 779 775 774 774 774 773 773 775 777 778 779 780 782 784 783 785 786 784 785 785 786 788 789 790 792 791 788 783 779 783 788 788 790 791 784 779 778 779 784 787 783 782 780 777 778 779 783 787 786 792 797 792 792 799 803 796 779 776 788 785 778 781 784 786 788 787 786 787 786 787 787 785 784
777 775 772 770 768 766 766 770 782 787 781 779 783 781 780 779 777 776 775 774 774 774 774 775 778 780 780 780 782 783 783 784 786 786 785 787 791 790 790 792 794 791 785 784 787 789 789 790 791 788 783 780 783 791 794 791 788 785 783 784 782 780 780 781 787 792 793 795 796 799 797 784 779 789 788 783 785 786 789 790 787 787 788 788 788 788 788 786
779 777 771 769 768 765 767 774 783 786 781 781 784 782 781 780 778 777 777 776 775 775 775 776 778 779 780 782 783 783 782 783 786 787 788 791 793 791 791 792 792 790 786 786 789 789 790 791 792 790 786 782 783 789 794 793 790 785 786 790 788 784 782 782 786 787 789 793 793 797 800 787 781 789 789 787 789 788 789 790 788 788 789 790 790 789 789 788
783 780 775 771 766 763 769 777 780 780 782 784 782 780 781 782 779 779 779 779 778 778 777 778 780 780 781 784 783 783 784 784 786 790 791 792 791 791 792 791 788 787 786 785 787 787 789 792 793 795 795 790 787 788 787 786 786 784 787 794 794 790 789 790 790 790 789 790 789 791 792 784 782 788 787 786 787 786 787 789 789 789 790 790 791 791 790 790
783 780 778 775 769 767 777 785 784 782 785 786 783 784 785 782 780 781 781 781 783 783 781 781 783 783 783 785 785 786 788 786 786 790 792 793 792 791 792 791 788 788 786 787 787 786 788 792 792 794 800 801 797 793 787 784 787 788 790 794 794 793 791 788 788 790 790 794 794 788 784 781 782 785 784 783 786 785 785 787 788 790 791 791 791 792 791 791
783 780 780 779 776 778 787 794 791 786 787 787 786 789 790 784 783 784 783 783 785 786 784 784 785 784 783 785 785 787 790 790 789 789 791 792 791 791 794 792 790 789 787 787 789 788 791 794 792 790 792 793 789 788 792 793 790 788 788 788 790 794 794 789 789 789 787 792 794 787 784 783 781 782 782 782 784 784 783 784 785 788 790 791 792 792 792 792
787 790 793 789 784 786 789 794 795 793 792 791 789 792 794 789 787 785 783 784 786 786 787 788 788 785 783 785 785 787 792 793 790 790 794 796 794 793 796 793 791 790 787 788 790 790 792 793 795 794 790 789 788 789 798 800 792 788 789 788 788 792 794 791 788 786 786 790 789 784 786 786 779 777 778 778 780 783 783 782 783 786 789 791 792 792 792 792
792 797 803 799 794 794 793 794 798 798 796 795 795 797 796 792 791 788 786 786 787 787 786 787 790 790 790 789 786 787 791 791 791 795 798 799 796 793 792 793 794 792 789 789 789 791 792 792 797 799 792 792 794 796 801 801 795 794 794 791 789 790 793 792 786 785 787 785 781 779 781 781 778 775 773 773 776 777 779 782 784 786 789 791 792 792 791 791
798 800 804 802 800 801 801 801 801 799 797 796 797 799 800 796 795 796 795 791 788 789 789 787 790 794 795 794 788 787 791 792 793 797 798 797 798 796 792 792 795 794 792 791 792 796 794 792 799 802 795 792 793 796 800 799 795 795 792 791 792 791 791 789 786 786 788 784 782 783 781 776 775 773 770 774 780 781 783 786 787 787 788 790 790 790 790 791
805 806 806 803 801 803 804 803 801 797 798 800 799 800 803 801 800 801 800 797 793 791 792 790 792 796 797 795 792 794 800 800 795 796 797 796 798 798 794 792 793 795 794 793 795 798 795 795 802 803 797 794 792 793 797 796 794 793 789 789 793 792 792 793 792 793 793 789 787 790 788 782 777 775 776 781 786 787 786 786 785 786 788 788 788 788 789 790
811 812 811 806 804 805 805 805 806 801 800 804 804 803 804 803 805 805 802 801 800 797 797 795 795 797 797 795 796 800 806 807 803 800 799 797 796 796 795 794 794 794 794 795 797 796 795 800 804 802 800 797 792 791 791 792 795 796 793 793 793 789 790 791 791 791 789 785 785 788 788 782 776 777 780 783 785 785 783 783 784 787 788 787 786 787 788 789
812 812 813 809 806 809 809 808 808 805 805 810 811 808 807 806 808 807 801 802 804 803 803 801 798 797 797 797 800 803 805 805 803 802 801 800 798 798 797 796 796 795 794 797 799 798 797 798 800 802 803 799 795 794 795 797 799 794 790 791 787 783 785 786 784 785 784 781 781 782 779 776 779 782 780 780 783 784 781 782 785 786 787 786 786 786 787 788